• en France
  • Liste des pays
  • À 7 jours
  • Température de l'eau
  • Carte satellitaire
  • Carte météo
  • Widgets météo
  • user-avatar
    Se connecter

    Météo par heure à Gluhari

    Ce jour, 22 Juillet, Dimanche

    Heure Température Précipitation Vent Pression Humidité
    00:00 +20°C° 0 mm 1 m/s 746 mmHg 93%
    01:00 +19°C° 0 mm 1 m/s 746 mmHg 94%
    02:00 +19°C° 0 mm 1 m/s 746 mmHg 95%
    03:00 +19°C° 0 mm 1 m/s 746 mmHg 95%
    04:00 +19°C° 0 mm 1 m/s 746 mmHg 95%
    05:00 +19°C° 0 mm 1 m/s 746 mmHg 95%
    06:00 +21°C° 0 mm 1 m/s 746 mmHg 90%
    07:00 +23°C° 0 mm 1 m/s 747 mmHg 85%
    08:00 +24°C° 0 mm 1 m/s 747 mmHg 80%
    09:00 +26°C° 0,2 mm 1 m/s 747 mmHg 74%
    10:00 +27°C° 0,2 mm 1 m/s 747 mmHg 69%
    11:00 +28°C° 0,2 mm 1 m/s 747 mmHg 64%
    12:00 +28°C° 0,4 mm 1 m/s 747 mmHg 66%
    13:00 +27°C° 0,4 mm 1 m/s 747 mmHg 69%
    14:00 +27°C° 0,4 mm 1 m/s 747 mmHg 72%
    15:00 +27°C° 0,7 mm 1 m/s 747 mmHg 74%
    16:00 +26°C° 0,7 mm 1 m/s 747 mmHg 76%
    17:00 +26°C° 0,7 mm 1 m/s 747 mmHg 79%
    18:00 +25°C° 0,4 mm 1 m/s 747 mmHg 82%
    19:00 +24°C° 0,4 mm 1 m/s 747 mmHg 86%
    20:00 +23°C° 0,4 mm 1 m/s 747 mmHg 89%
    21:00 +22°C° 0,2 mm 1 m/s 748 mmHg 91%
    22:00 +21°C° 0,2 mm 1 m/s 748 mmHg 92%
    23:00 +19°C° 0,2 mm 0 m/s 748 mmHg 94%

    Demain, 23 Juillet, Lundi

    Heure Température Précipitation Vent Pression Humidité
    00:00 +19°C° 0,2 mm 0 m/s 748 mmHg 94%
    01:00 +18°C° 0,2 mm 0 m/s 748 mmHg 95%
    02:00 +20°C° 0,2 mm 1 m/s 748 mmHg 95%
    03:00 +20°C° 0,2 mm 1 m/s 748 mmHg 96%
    04:00 +20°C° 0,2 mm 1 m/s 748 mmHg 96%
    05:00 +20°C° 0,2 mm 1 m/s 748 mmHg 96%
    06:00 +21°C° 0,2 mm 1 m/s 749 mmHg 95%
    07:00 +21°C° 0,2 mm 1 m/s 749 mmHg 93%
    08:00 +22°C° 0,2 mm 1 m/s 749 mmHg 92%
    09:00 +22°C° 0,4 mm 1 m/s 749 mmHg 90%
    10:00 +23°C° 0,4 mm 2 m/s 749 mmHg 89%
    11:00 +23°C° 0,4 mm 2 m/s 749 mmHg 87%
    12:00 +24°C° 0,8 mm 2 m/s 749 mmHg 83%
    13:00 +25°C° 0,8 mm 2 m/s 749 mmHg 79%
    14:00 +26°C° 0,8 mm 2 m/s 749 mmHg 75%
    15:00 +26°C° 0,7 mm 2 m/s 749 mmHg 75%
    16:00 +26°C° 0,7 mm 2 m/s 749 mmHg 75%
    17:00 +25°C° 0,7 mm 1 m/s 749 mmHg 75%
    18:00 +24°C° 0,2 mm 1 m/s 749 mmHg 79%
    19:00 +23°C° 0,2 mm 1 m/s 749 mmHg 83%
    20:00 +22°C° 0,2 mm 1 m/s 749 mmHg 87%
    21:00 +21°C° 0 mm 1 m/s 750 mmHg 89%
    22:00 +20°C° 0 mm 1 m/s 750 mmHg 92%
    23:00 +20°C° 0 mm 1 m/s 750 mmHg 94%

    Après-demain, 24 Juillet, Mardi

    Heure Température Précipitation Vent Pression Humidité
    00:00 +19°C° 0 mm 1 m/s 750 mmHg 95%
    01:00 +19°C° 0 mm 1 m/s 750 mmHg 96%
    02:00 +18°C° 0 mm 1 m/s 750 mmHg 96%
    03:00 +18°C° 0 mm 1 m/s 750 mmHg 96%
    04:00 +18°C° 0 mm 1 m/s 750 mmHg 96%
    05:00 +18°C° 0 mm 1 m/s 750 mmHg 96%
    06:00 +20°C° 0 mm 1 m/s 751 mmHg 89%
    07:00 +22°C° 0 mm 1 m/s 751 mmHg 83%
    08:00 +23°C° 0 mm 2 m/s 751 mmHg 76%
    09:00 +24°C° 0 mm 2 m/s 751 mmHg 69%
    10:00 +25°C° 0 mm 2 m/s 751 mmHg 62%
    11:00 +26°C° 0 mm 2 m/s 751 mmHg 55%
    12:00 +27°C° 0 mm 2 m/s 751 mmHg 53%
    13:00 +27°C° 0 mm 3 m/s 750 mmHg 51%
    14:00 +28°C° 0 mm 3 m/s 750 mmHg 49%
    15:00 +28°C° 0 mm 3 m/s 750 mmHg 52%
    16:00 +27°C° 0 mm 3 m/s 750 mmHg 54%
    17:00 +27°C° 0 mm 3 m/s 750 mmHg 57%
    18:00 +25°C° 0 mm 3 m/s 751 mmHg 65%
    19:00 +24°C° 0 mm 2 m/s 751 mmHg 73%
    20:00 +21°C° 0 mm 2 m/s 751 mmHg 82%
    21:00 +20°C° 0 mm 2 m/s 751 mmHg 86%
    22:00 +19°C° 0 mm 2 m/s 751 mmHg 91%
    23:00 +18°C° 0 mm 2 m/s 751 mmHg 95%

    25 Juillet, Mercredi

    Heure Température Précipitation Vent Pression Humidité
    00:00 +18°C° 0 mm 2 m/s 751 mmHg 96%
    01:00 +17°C° 0 mm 2 m/s 751 mmHg 97%
    02:00 +17°C° 0 mm 2 m/s 751 mmHg 98%
    03:00 +17°C° 0 mm 2 m/s 751 mmHg 98%
    04:00 +17°C° 0 mm 2 m/s 752 mmHg 97%
    05:00 +18°C° 0 mm 2 m/s 752 mmHg 97%
    06:00 +19°C° 0 mm 2 m/s 752 mmHg 91%
    07:00 +20°C° 0 mm 2 m/s 752 mmHg 86%
    08:00 +22°C° 0 mm 3 m/s 752 mmHg 81%
    09:00 +24°C° 0,1 mm 3 m/s 752 mmHg 77%
    10:00 +26°C° 0,1 mm 3 m/s 752 mmHg 72%
    11:00 +27°C° 0,1 mm 3 m/s 752 mmHg 68%
    12:00 +27°C° 0,7 mm 3 m/s 752 mmHg 72%
    13:00 +27°C° 0,7 mm 3 m/s 752 mmHg 75%
    14:00 +27°C° 0,7 mm 3 m/s 752 mmHg 78%
    15:00 +27°C° 0,5 mm 3 m/s 752 mmHg 77%
    16:00 +26°C° 0,5 mm 3 m/s 752 mmHg 76%
    17:00 +26°C° 0,5 mm 3 m/s 752 mmHg 75%
    18:00 +25°C° 0 mm 2 m/s 752 mmHg 78%
    19:00 +24°C° 0 mm 2 m/s 752 mmHg 81%
    20:00 +23°C° 0 mm 2 m/s 752 mmHg 84%
    21:00 +21°C° 0 mm 2 m/s 752 mmHg 86%
    22:00 +20°C° 0 mm 2 m/s 752 mmHg 89%
    23:00 +20°C° 0 mm 2 m/s 752 mmHg 92%

    26 Juillet, Jeudi

    Heure Température Précipitation Vent Pression Humidité
    00:00 +19°C° 0 mm 2 m/s 752 mmHg 92%
    01:00 +19°C° 0 mm 2 m/s 752 mmHg 92%
    02:00 +18°C° 0 mm 2 m/s 752 mmHg 92%
    03:00 +18°C° 0 mm 2 m/s 753 mmHg 90%
    04:00 +18°C° 0 mm 2 m/s 753 mmHg 87%
    05:00 +18°C° 0 mm 3 m/s 753 mmHg 85%
    06:00 +19°C° 0 mm 3 m/s 753 mmHg 80%
    07:00 +20°C° 0 mm 3 m/s 753 mmHg 75%
    08:00 +22°C° 0 mm 3 m/s 753 mmHg 70%
    09:00 +24°C° 0 mm 3 m/s 753 mmHg 67%
    10:00 +26°C° 0 mm 3 m/s 753 mmHg 64%
    11:00 +27°C° 0 mm 4 m/s 754 mmHg 62%
    12:00 +28°C° 0,3 mm 3 m/s 754 mmHg 62%
    13:00 +28°C° 0,3 mm 3 m/s 753 mmHg 62%
    14:00 +29°C° 0,3 mm 3 m/s 753 mmHg 62%
    15:00 +29°C° 0,6 mm 3 m/s 753 mmHg 65%
    16:00 +29°C° 0,6 mm 3 m/s 753 mmHg 68%
    17:00 +28°C° 0,6 mm 2 m/s 754 mmHg 71%
    18:00 +27°C° 0,1 mm 2 m/s 754 mmHg 75%
    19:00 +26°C° 0,1 mm 2 m/s 754 mmHg 79%
    20:00 +24°C° 0,1 mm 1 m/s 754 mmHg 84%
    21:00 +23°C° 0 mm 1 m/s 754 mmHg 85%
    22:00 +21°C° 0 mm 2 m/s 754 mmHg 86%
    23:00 +21°C° 0 mm 2 m/s 754 mmHg 88%

    27 Juillet, Vendredi

    Heure Température Précipitation Vent Pression Humidité
    00:00 +20°C° 0,1 mm 2 m/s 755 mmHg 89%
    01:00 +20°C° 0,1 mm 2 m/s 755 mmHg 90%
    02:00 +19°C° 0,1 mm 2 m/s 755 mmHg 91%
    03:00 +19°C° 0 mm 2 m/s 755 mmHg 92%
    04:00 +19°C° 0 mm 2 m/s 755 mmHg 93%
    05:00 +19°C° 0 mm 2 m/s 755 mmHg 94%
    06:00 +21°C° 0 mm 2 m/s 755 mmHg 89%
    07:00 +23°C° 0 mm 2 m/s 756 mmHg 84%
    08:00 +25°C° 0 mm 3 m/s 756 mmHg 79%
    09:00 +26°C° 0 mm 3 m/s 756 mmHg 70%
    10:00 +28°C° 0 mm 3 m/s 756 mmHg 62%
    11:00 +30°C° 0 mm 4 m/s 756 mmHg 53%
    12:00 +30°C° 0 mm 4 m/s 756 mmHg 51%
    13:00 +32°C° 0 mm 4 m/s 755 mmHg 48%
    14:00 +33°C° 0 mm 4 m/s 755 mmHg 46%
    15:00 +33°C° 0 mm 3 m/s 755 mmHg 48%
    16:00 +31°C° 0 mm 3 m/s 755 mmHg 50%
    17:00 +31°C° 0 mm 3 m/s 755 mmHg 53%
    18:00 +29°C° 0 mm 3 m/s 755 mmHg 60%
    19:00 +28°C° 0 mm 3 m/s 755 mmHg 67%
    20:00 +26°C° 0 mm 2 m/s 755 mmHg 74%
    21:00 +25°C° 0 mm 2 m/s 756 mmHg 78%
    22:00 +24°C° 0 mm 2 m/s 756 mmHg 82%
    23:00 +23°C° 0 mm 2 m/s 756 mmHg 86%
    Voir plus